Location: Ellerstadt
(49.4644°N, 8.2615°E)
Time: 13:51:30
(UTC+00:00)

Transit 2A - All Passes

Search period start: 22 June 2021 00:00
Search period end: 02 July 2021 00:00
Orbit: 600 x 958 km, 66.7° (Epoch: 21 June)

Date Brightness Start Highest point End Pass type
(mag) Time Alt. Az. Time Alt. Az. Time Alt. Az.
22 Jun - 01:17:49 10° WNW 01:21:32 21° WSW 01:25:30 10° SSW visible
22 Jun - 14:20:05 10° SSE 14:23:05 18° ESE 14:26:06 10° ENE daylight
22 Jun - 16:01:26 10° SW 16:05:43 61° NW 16:10:09 10° NNE daylight
22 Jun - 17:47:08 10° WNW 17:49:50 16° NNW 17:52:36 10° NNE daylight
22 Jun - 21:17:24 10° NNW 21:20:21 16° NNE 21:23:25 10° ENE visible
22 Jun - 22:59:44 10° NNW 23:04:30 53° NE 23:09:45 10° SE visible
23 Jun - 00:43:11 10° NW 00:47:29 29° WSW 00:52:09 10° S visible
23 Jun - 13:47:22 10° SE 13:49:09 12° ESE 13:50:54 10° E daylight
23 Jun - 15:27:10 10° SW 15:31:30 88° WNW 15:35:59 10° NE daylight
23 Jun - 17:12:11 10° WNW 17:15:20 19° NNW 17:18:36 10° NNE daylight
23 Jun - 20:43:26 10° N 20:45:48 14° NNE 20:48:16 10° NE visible
23 Jun - 22:25:38 10° NNW 22:30:13 40° NE 22:35:14 10° ESE visible
24 Jun - 00:08:45 10° NW 00:13:25 40° WSW 00:18:31 10° S visible
24 Jun - 14:53:04 10° SSW 14:57:21 64° ESE 15:01:45 10° NE daylight
24 Jun - 16:37:20 10° W 16:40:54 24° NW 16:44:35 10° NNE daylight
24 Jun - 18:25:25 10° NNW 18:25:48 10° N 18:26:11 10° N daylight
24 Jun - 20:09:29 10° N 20:11:13 12° NNE 20:13:00 10° NE daylight
24 Jun - 21:51:33 10° NNW 21:55:53 31° NE 22:00:34 10° ESE visible
24 Jun - 23:34:25 10° NW 23:39:18 57° WSW 23:44:40 10° SSE visible
25 Jun - 14:19:09 10° S 14:23:14 43° ESE 14:27:26 10° NE daylight
25 Jun - 16:02:37 10° WSW 16:06:30 31° NW 16:10:31 10° NNE daylight
25 Jun - 17:49:46 10° NNW 17:51:11 11° NNW 17:52:37 10° N daylight
25 Jun - 19:35:39 10° N 19:36:37 11° NNE 19:37:35 10° NNE daylight
25 Jun - 21:17:30 10° NNW 21:21:29 25° NE 21:25:46 10° E visible
25 Jun - 23:00:11 10° NW 23:05:08 79° WSW 23:10:37 10° SSE visible
26 Jun - 00:45:05 10° WNW 00:47:40 14° WSW 00:50:20 10° SW visible
26 Jun - 13:45:27 10° S 13:49:11 29° ESE 13:53:00 10° NE daylight
26 Jun - 15:28:03 10° WSW 15:32:10 41° NW 15:36:26 10° NNE daylight
26 Jun - 17:14:31 10° NW 17:16:36 13° NNW 17:18:43 10° N daylight
26 Jun - 20:43:28 10° NNW 20:47:03 20° NNE 20:50:52 10° E visible
26 Jun - 22:25:59 10° NW 22:30:56 77° NE 22:36:25 10° SE visible
27 Jun - 00:10:02 10° WNW 00:13:41 20° WSW 00:17:34 10° SSW visible
27 Jun - 13:12:02 10° SSE 13:15:11 20° ESE 13:18:23 10° ENE daylight
27 Jun - 14:53:37 10° SW 14:57:53 57° NW 15:02:19 10° NNE daylight
27 Jun - 16:39:25 10° WNW 16:42:03 15° NNW 16:44:46 10° NNE daylight
27 Jun - 20:09:28 10° NNW 20:12:34 17° NNE 20:15:51 10° ENE daylight
27 Jun - 21:51:50 10° NNW 21:56:42 57° NE 22:02:03 10° SE visible
27 Jun - 23:35:22 10° NW 23:39:39 28° WSW 23:44:17 10° S visible
28 Jun - 12:39:08 10° SE 12:41:14 13° ESE 12:43:21 10° ENE daylight
28 Jun - 14:19:19 10° SW 14:23:39 82° NW 14:28:09 10° NE daylight
28 Jun - 16:04:26 10° WNW 16:07:32 18° NNW 16:10:46 10° NNE daylight
28 Jun - 19:35:27 10° N 19:38:02 14° NNE 19:40:44 10° NE daylight
28 Jun - 21:17:44 10° NNW 21:22:25 43° NE 21:27:33 10° ESE visible
28 Jun - 23:00:55 10° NW 23:05:35 38° WSW 23:10:41 10° S visible
29 Jun - 13:45:11 10° SSW 13:49:29 69° ESE 13:53:56 10° NE daylight
29 Jun - 15:29:35 10° W 15:33:05 23° NW 15:36:44 10° NNE daylight
29 Jun - 17:17:37 10° NNW 17:18:03 10° N 17:18:29 10° N daylight
29 Jun - 19:01:29 10° N 19:03:28 12° NNE 19:05:31 10° NE daylight
29 Jun - 20:43:39 10° NNW 20:48:05 33° NE 20:52:55 10° ESE visible
29 Jun - 22:26:34 10° NW 22:31:28 53° WSW 22:36:52 10° SSE visible
30 Jun - 13:11:14 10° SSW 13:15:22 46° ESE 13:19:38 10° NE daylight
30 Jun - 14:54:51 10° WSW 14:58:41 29° NW 15:02:41 10° NNE daylight
30 Jun - 16:42:03 10° NNW 16:43:25 11° NNW 16:44:49 10° N daylight
30 Jun - 18:27:33 10° N 18:28:52 11° NNE 18:30:11 10° NNE daylight
30 Jun - 20:09:35 10° NNW 20:13:43 26° NE 20:18:10 10° E visible
30 Jun - 21:52:18 10° NW 21:57:19 74° WSW 22:02:51 10° SSE visible
30 Jun - 23:37:26 10° W 23:39:48 13° WSW 23:42:15 10° SW visible
01 Jul - 12:37:29 10° S 12:41:18 31° ESE 12:45:13 10° NE daylight
01 Jul - 14:20:15 10° WSW 14:24:20 39° NW 14:28:36 10° NNE daylight
01 Jul - 16:06:48 10° NW 16:08:50 13° NNW 16:10:54 10° N daylight
01 Jul - 17:53:51 10° N 17:54:14 10° N 17:54:37 10° NNE daylight
01 Jul - 19:35:32 10° NNW 19:39:16 21° NNE 19:43:16 10° E daylight
01 Jul - 21:18:06 10° NW 21:23:07 82° NE 21:28:41 10° SE visible
01 Jul - 23:02:16 10° WNW 23:05:49 19° WSW 23:09:37 10° SSW visible
